sat.trackr.live / text

‹ back to catalog

STARLINK-3181

NORAD 51461 · 2022-010F

PAYLOAD ACTIVE UNKNOWN

§ Identity

Operator
Country
US
Launch date
2022-02-03
Launch site
AFETR
Launch vehicle
Mass (kg)
RCS (m²)

Purposes: comms

External: N2YO · Heavens-Above · Gunter

§ Orbital elements

Epoch: 2026-05-25T03:28:20.815104Z

Period
95.44 min
Inclination
53.2129°
Eccentricity
0.0001286
Mean motion
15.08841289 rev/d
Perigee alt
538.8 km
Apogee alt
540.6 km
Semi-major
6,917.9 km
B*
6.4792e-5
RAAN
295.9003°
Arg perigee
88.9181°
Mean anomaly
271.1958°
Rev number
23,836

§ Raw data

STARLINK-31811 51461U 22010F   26145.14468536  .00000743  00000+0  64792-4 0  99922 51461  53.2129 295.9003 0001286  88.9181 271.1958 15.08841289238362

JSON: /api/v1/satellites/51461 · /tle

For live sub-satellite position, see the globe view (requires WebGL).

§ Visibility from observer

Set your observer location to see the next 7 days of passes ≥ 10°. The values pass through the URL so the page stays shareable.

No JS? Fill the form by hand. The geolocation button needs JavaScript.